[[{"header":{"parameterUnit":"m.s-1","parameterCategory":1,"la1":30.2991,"la2":30.254,"lo1":-89.0895,"lo2":-89.0444,"dy":0.0017,"dx":0.0017,"nx":28,"ny":28,"refTime":"2024-05-07T03:00:00:Z","depth":0,"parameterNumber":2,"parameterNumberName":"U-component_of_WINDS"},"data":[0,0,0,0,0,0,0,0,0,0,0,0,0,0,0,0,0,0,0,0,0,0,0,0,0,0,0,0,0,0,0,0,0,0,0,0,0,0,0,0,0,0,0,0,0,0,0,0,0,0,0,0,0,0,0,0,0,0,-0.7654,-0.7654,0,-0.7656,-0.7656,-0.7656,-0.766,-0.766,-0.7661,-0.7661,-0.7664,-0.7664,-0.7664,0,0,0,0,0,0,0,0,0,0,0,0,0,-0.7654,-0.7654,-0.7654,-0.7654,-0.7654,-0.7656,-0.7656,-0.7656,-0.766,-0.766,-0.7661,-0.7661,-0.7664,-0.7664,-0.7664,0,0,0,0,0,0,0,0,0,0,0,0,0,-0.7655,-0.7654,-0.7653,-0.7656,-0.7656,-0.7656,-0.7656,-0.7656,-0.766,-0.766,-0.7661,-0.7661,-0.7664,-0.7664,-0.7664,-0.7661,0,0,-0.7664,-0.7664,0,0,0,0,0,0,0,0,-0.7655,-0.7655,-0.7656,-0.7656,-0.7656,-0.7658,-0.7657,-0.7658,-0.766,-0.7659,-0.7661,-0.7661,-0.7662,-0.7662,-0.7662,-0.7661,-0.7661,-0.7664,-0.7664,-0.7664,-0.7664,0,0,0,0,0,0,0,-0.7655,-0.7655,-0.7654,-0.7656,-0.7656,-0.7657,-0.7658,-0.7657,-0.766,-0.7659,-0.7659,-0.7659,-0.7662,-0.7662,-0.7662,-0.7661,-0.7664,-0.7664,-0.7664,-0.7664,-0.7659,-0.7659,0,0,0,0,0,0,-0.7654,-0.7655,-0.7654,-0.7655,-0.7656,-0.7657,-0.7658,-0.7657,-0.766,-0.766,-0.7659,-0.766,-0.7662,-0.7662,-0.7662,-0.766,-0.7664,-0.7664,-0.7664,-0.766,-0.7659,-0.7659,0,0,0,0,0,0,-0.7654,-0.7654,-0.7654,-0.7655,-0.7655,-0.7657,-0.7657,-0.7657,-0.7657,-0.766,-0.766,-0.7659,-0.7662,-0.7662,-0.7661,-0.766,-0.7664,-0.7664,-0.766,-0.766,-0.7659,-0.7655,0,0,0,0,0,0,-0.7654,-0.7654,-0.7653,-0.7655,-0.7655,-0.7653,-0.7657,-0.7657,-0.7657,-0.7658,-0.766,-0.766,-0.7662,-0.7661,-0.7661,-0.766,-0.7664,-0.766,-0.766,-0.7659,-0.7655,-0.7654,-0.7654,0,0,0,0,0,-0.7654,-0.7651,-0.7653,-0.7653,-0.7653,-0.7653,-0.7653,-0.7655,-0.7657,-0.7656,-0.7658,-0.766,-0.766,-0.7661,-0.7661,-0.766,-0.766,-0.766,-0.7659,-0.7655,-0.7654,-0.7654,0,0,0,0,0,0,-0.7649,-0.7652,-0.7653,-0.7651,-0.7652,-0.7654,-0.7652,-0.7654,-0.7655,-0.7655,-0.7658,-0.7659,-0.7658,-0.7659,-0.766,-0.7658,-0.766,-0.766,-0.7657,-0.7656,-0.7656,-0.7656,-0.7664,0,0,0,0,0,-0.7648,-0.7647,-0.7649,-0.7647,-0.7648,-0.765,-0.765,-0.7652,-0.7653,-0.7653,-0.7655,-0.7656,-0.7656,-0.7657,-0.7657,-0.7655,-0.7656,-0.7654,-0.7654,-0.7653,-0.7653,-0.7653,-0.7652,-0.7658,-0.7658,-0.7658,0,0,-0.7645,-0.7646,-0.7646,-0.7646,-0.7647,-0.7647,-0.765,-0.7649,-0.7649,-0.7653,-0.7652,-0.7654,-0.7655,-0.7654,-0.7654,-0.7655,-0.7652,-0.7653,-0.7653,-0.7653,-0.7652,-0.7652,-0.7651,-0.7658,-0.7658,-0.7658,0,0,-0.764,-0.764,-0.7639,-0.764,-0.7641,-0.7643,-0.7642,-0.7644,-0.7645,-0.7645,-0.7648,-0.7648,-0.7648,-0.765,-0.765,-0.7646,-0.7649,-0.7646,-0.7643,-0.7643,-0.7643,-0.7642,-0.7641,-0.7641,-0.7646,-0.7646,-0.7646,0,-0.7636,-0.7635,-0.7638,-0.7637,-0.7637,-0.7641,-0.764,-0.764,-0.7642,-0.7642,-0.7644,-0.7645,-0.7646,-0.7646,-0.7645,-0.7645,-0.7645,-0.7646,-0.7642,-0.7642,-0.7642,-0.7641,-0.764,-0.7646,-0.7646,-0.7646,-0.7646,0,-0.7631,-0.763,-0.7629,-0.763,-0.7631,-0.763,-0.7632,-0.7632,-0.7634,-0.7636,-0.7636,-0.7638,-0.7639,-0.7639,-0.7641,-0.7639,-0.764,-0.7642,-0.7644,-0.7641,-0.764,-0.7639,-0.7645,-0.7646,-0.7646,-0.7646,0,0,-0.7622,-0.7625,-0.7625,-0.7626,-0.7628,-0.7627,-0.7627,-0.7628,-0.7628,-0.7629,-0.7629,-0.763,-0.7632,-0.7633,-0.7635,-0.7635,-0.7632,-0.7637,-0.7637,-0.7636,-0.763,-0.7629,-0.7628,-0.7634,-0.7634,-0.7633,-0.763,0,-0.7617,-0.7616,-0.7619,-0.7617,-0.7617,-0.7621,-0.762,-0.7622,-0.7624,-0.7624,-0.7626,-0.7627,-0.7629,-0.763,-0.763,-0.7632,-0.7631,-0.7633,-0.7634,-0.7634,-0.7633,-0.7628,-0.7626,-0.7623,-0.763,-0.763,-0.763,0,-0.7611,-0.7612,-0.761,-0.7613,-0.7613,-0.7613,-0.7614,-0.7615,-0.7617,-0.7618,-0.7619,-0.7622,-0.7622,-0.7625,-0.7626,-0.7627,-0.7627,-0.7629,-0.7629,-0.7629,-0.7632,-0.7628,-0.7622,-0.7622,-0.7629,-0.7629,-0.7629,0,-0.7605,-0.7606,-0.7605,-0.7606,-0.7609,-0.7609,-0.761,-0.7612,-0.7613,-0.7614,-0.7615,-0.7617,-0.7617,-0.7619,-0.7622,-0.7624,-0.7623,-0.7625,-0.7624,-0.7624,-0.7623,-0.7623,-0.7618,-0.7624,-0.7624,-0.7624,-0.7624,0,-0.7599,-0.7598,-0.7603,-0.7602,-0.7601,-0.7605,-0.7604,-0.7606,-0.7608,-0.7608,-0.7612,-0.7612,-0.7616,-0.7617,-0.762,-0.762,-0.762,-0.7622,-0.7623,-0.7622,-0.7621,-0.7622,-0.7622,-0.7624,-0.7624,-0.7624,-0.7624,0,-0.7592,-0.7595,-0.7595,-0.7598,-0.7599,-0.7598,-0.7601,-0.7601,-0.7603,-0.7604,-0.7604,-0.7608,-0.7609,-0.7612,-0.7615,-0.7616,-0.7616,-0.7618,-0.7615,-0.7616,-0.7615,-0.7615,-0.7609,-0.7609,-0.7615,-0.7615,-0.7615,0,-0.7588,-0.7588,-0.7591,-0.7591,-0.7593,-0.7593,-0.7594,-0.7597,-0.7598,-0.7601,-0.7601,-0.7602,-0.7604,-0.7606,-0.7609,-0.7611,-0.7613,-0.7611,-0.7613,-0.7612,-0.7613,-0.7613,-0.7613,-0.761,-0.761,-0.761,-0.761,0,-0.7581,-0.7583,-0.7584,-0.7585,-0.7586,-0.7588,-0.7589,-0.7589,-0.7594,-0.7594,-0.7596,-0.7597,-0.76,-0.7601,-0.7604,-0.7606,-0.7609,-0.7609,-0.7609,-0.7608,-0.7607,-0.7608,-0.7614,-0.7609,-0.7609,-0.7609,-0.7609,-0.7609,-0.7576,-0.7576,-0.7578,-0.7579,-0.7581,-0.7582,-0.7583,-0.7585,-0.7586,-0.7588,-0.7591,-0.7592,-0.7595,-0.7599,-0.76,-0.7602,-0.7603,-0.7603,-0.7603,-0.7603,-0.7603,-0.7607,-0.7602,-0.7602,-0.7602,-0.7603,-0.7603,0,-0.7569,-0.7571,-0.7572,-0.7574,-0.7575,-0.7578,-0.758,-0.7581,-0.7582,-0.7584,-0.7586,-0.7588,-0.759,-0.7593,-0.7596,-0.7596,-0.7597,-0.7597,-0.7597,-0.7597,-0.7601,-0.7601,-0.7595,-0.7595,-0.7595,-0.7595,-0.7595,-0.7595,-0.7566,-0.7566,-0.7568,-0.7569,-0.7571,-0.7572,-0.7573,-0.7575,-0.7577,-0.7579,-0.758,-0.7583,-0.7586,-0.7588,-0.759,-0.7591,-0.7592,-0.7591,-0.7592,-0.7596,-0.7597,-0.7597,-0.7597,-0.7591,-0.7591,-0.7588,-0.7588,-0.7588]},{"header":{"parameterUnit":"m.s-1","parameterCategory":1,"la1":30.2991,"la2":30.254,"lo1":-89.0895,"lo2":-89.0444,"dy":0.0017,"dx":0.0017,"nx":28,"ny":28,"refTime":"2024-05-07T03:00:00:Z","depth":0,"parameterNumber":3,"parameterNumberName":"V-component_of_WINDS"},"data":[0,0,0,0,0,0,0,0,0,0,0,0,0,0,0,0,0,0,0,0,0,0,0,0,0,0,0,0,0,0,0,0,0,0,0,0,0,0,0,0,0,0,0,0,0,0,0,0,0,0,0,0,0,0,0,0,0,0,5.2657,5.2657,0,5.2705,5.2705,5.2706,5.2665,5.2663,5.2662,5.266,5.2705,5.2707,5.271,0,0,0,0,0,0,0,0,0,0,0,0,0,5.2525,5.2528,5.2657,5.2657,5.2658,5.2705,5.2705,5.2706,5.2665,5.2663,5.2661,5.2659,5.2704,5.2707,5.271,0,0,0,0,0,0,0,0,0,0,0,0,0,5.2579,5.2529,5.2657,5.2643,5.2643,5.2704,5.2705,5.2706,5.2666,5.2663,5.2661,5.2658,5.2703,5.2707,5.2711,5.2787,0,0,5.2723,5.2725,0,0,0,0,0,0,0,0,5.2576,5.2584,5.2645,5.2644,5.2644,5.2676,5.2675,5.2733,5.2666,5.2657,5.266,5.2657,5.2697,5.2701,5.2716,5.2789,5.2791,5.2724,5.2726,5.2728,5.2729,0,0,0,0,0,0,0,5.2572,5.2581,5.2675,5.2646,5.2645,5.2634,5.2638,5.2686,5.269,5.2657,5.2655,5.2661,5.2696,5.2712,5.2717,5.2791,5.2724,5.2727,5.273,5.2731,5.2929,5.2932,0,0,0,0,0,0,5.257,5.2578,5.2674,5.2677,5.2603,5.2638,5.2643,5.2668,5.269,5.2691,5.2663,5.2659,5.2706,5.2712,5.2718,5.2809,5.2728,5.2732,5.2734,5.2926,5.293,5.2933,0,0,0,0,0,0,5.2568,5.2579,5.2672,5.2627,5.2638,5.2643,5.2671,5.2671,5.2686,5.2694,5.2694,5.2679,5.2704,5.2712,5.277,5.281,5.2734,5.2737,5.2923,5.2927,5.2931,5.2991,0,0,0,0,0,0,5.2564,5.2579,5.2609,5.2628,5.2641,5.2725,5.2674,5.2673,5.2694,5.2689,5.2709,5.271,5.2703,5.2764,5.2774,5.2814,5.2741,5.292,5.2925,5.293,5.2986,5.2997,5.3007,0,0,0,0,0,5.256,5.2622,5.261,5.2622,5.2678,5.2728,5.2735,5.2727,5.2698,5.2727,5.2732,5.2709,5.2804,5.2771,5.2782,5.2823,5.2917,5.2924,5.293,5.2981,5.2995,5.3007,0,0,0,0,0,0,5.2606,5.2625,5.2612,5.2683,5.2704,5.2721,5.2758,5.2742,5.277,5.2764,5.2752,5.2757,5.2819,5.2826,5.2789,5.2898,5.2856,5.2864,5.2891,5.2904,5.2914,5.2912,5.2744,0,0,0,0,0,5.2625,5.2664,5.2678,5.274,5.2751,5.2753,5.2774,5.2766,5.2787,5.2796,5.2805,5.2825,5.2859,5.2882,5.2913,5.2986,5.299,5.302,5.3031,5.3039,5.3047,5.3087,5.3101,5.2953,5.2953,5.2953,0,0,5.2663,5.2678,5.2704,5.2749,5.2765,5.2806,5.2761,5.2805,5.2835,5.2802,5.2858,5.2865,5.2886,5.2953,5.2982,5.2961,5.3089,5.3047,5.3054,5.3057,5.3095,5.3109,5.3121,5.2958,5.2957,5.2956,0,0,5.2755,5.277,5.2824,5.2841,5.2866,5.2866,5.2879,5.2898,5.2903,5.2959,5.2936,5.2969,5.3029,5.3045,5.3061,5.3159,5.3139,5.317,5.3224,5.3263,5.3275,5.3285,5.3321,5.3334,5.3177,5.3178,5.3178,0,5.2799,5.2861,5.2853,5.29,5.292,5.2894,5.2948,5.2964,5.2997,5.3011,5.2987,5.3062,5.3074,5.3144,5.3168,5.3181,5.3195,5.3168,5.3274,5.3284,5.3294,5.3328,5.3341,5.3181,5.3181,5.318,5.318,0,5.2915,5.2958,5.2998,5.3033,5.3058,5.3108,5.3106,5.3132,5.3122,5.3125,5.3182,5.3196,5.3231,5.3246,5.3236,5.3315,5.3302,5.3276,5.3233,5.3312,5.3343,5.3356,5.3186,5.3185,5.3184,5.3183,0,0,5.3038,5.3068,5.3083,5.3099,5.3125,5.3157,5.3205,5.3241,5.3263,5.3287,5.3327,5.3377,5.3354,5.3373,5.3364,5.3398,5.3476,5.3368,5.3368,5.3389,5.3564,5.3584,5.36,5.3462,5.3465,5.3466,5.3563,0,5.3131,5.3218,5.3212,5.3293,5.3332,5.3307,5.3349,5.3369,5.3373,5.3405,5.3408,5.3445,5.3412,5.3423,5.3455,5.346,5.3511,5.3452,5.3499,5.3501,5.3496,5.3616,5.3637,5.3728,5.3575,5.3577,5.3579,0,5.3253,5.3283,5.3368,5.3389,5.3405,5.3443,5.3475,5.3507,5.3528,5.3528,5.3549,5.3535,5.3582,5.3538,5.3603,5.3563,5.3581,5.3586,5.359,5.3595,5.3545,5.3625,5.3756,5.377,5.3598,5.3596,5.3595,0,5.3335,5.3397,5.3456,5.347,5.3495,5.3522,5.3533,5.3552,5.3574,5.3601,5.3615,5.3647,5.3665,5.3689,5.3684,5.3652,5.375,5.3705,5.3751,5.3752,5.3774,5.3773,5.3911,5.3784,5.3784,5.3784,5.3784,0,5.3441,5.3495,5.3494,5.353,5.3589,5.3581,5.3639,5.3646,5.3663,5.37,5.3679,5.3713,5.3703,5.3737,5.3732,5.3787,5.3795,5.3796,5.3794,5.3799,5.3799,5.3811,5.3805,5.3787,5.3787,5.3786,5.3785,0,5.3544,5.3546,5.3609,5.3628,5.3633,5.3676,5.3691,5.3725,5.3727,5.3774,5.3784,5.3787,5.3825,5.3822,5.3864,5.3861,5.393,5.392,5.3923,5.3922,5.3969,5.3965,5.4121,5.4141,5.4,5.4001,5.4002,0,5.3613,5.3654,5.3677,5.3701,5.3715,5.3753,5.3776,5.3769,5.3793,5.382,5.3851,5.3888,5.3917,5.398,5.3985,5.4017,5.4009,5.4061,5.4013,5.4017,5.4011,5.4009,5.4013,5.4071,5.4072,5.4074,5.4075,0,5.3734,5.3733,5.3768,5.3803,5.3831,5.3858,5.3882,5.3902,5.3897,5.3925,5.3966,5.3989,5.4033,5.407,5.4101,5.411,5.4092,5.409,5.4102,5.4108,5.4109,5.411,5.395,5.4086,5.4085,5.4084,5.4084,5.4083,5.3823,5.3858,5.3881,5.392,5.3938,5.3961,5.3995,5.4001,5.4035,5.4072,5.4065,5.411,5.413,5.417,5.4182,5.4217,5.4198,5.4216,5.4221,5.4226,5.4232,5.4102,5.4222,5.4222,5.4221,5.4221,5.4221,0,5.3944,5.3958,5.3994,5.403,5.4061,5.4041,5.4067,5.4094,5.4135,5.4155,5.4185,5.4231,5.4267,5.4275,5.4308,5.4334,5.4327,5.4344,5.4342,5.4345,5.4246,5.4233,5.4349,5.4349,5.4349,5.4349,5.4349,5.4349,5.4012,5.4071,5.4073,5.414,5.4153,5.4199,5.4215,5.4236,5.4252,5.4306,5.4336,5.4341,5.4356,5.4391,5.4423,5.4424,5.4438,5.4458,5.4456,5.4364,5.4352,5.4339,5.4327,5.4461,5.4461,5.4552,5.4553,5.4554]}]]